{"data":{"norad_id":57102,"intl_designator":"2023-090B","name":"STARLINK-6111","alt_names":[],"object_type":"PAYLOAD","status":"ACTIVE","operator":null,"country":"US","launch_date":"2023-06-23","launch_site_code":"AFETR","launch_vehicle":null,"mission":null,"orbit_class":"UNKNOWN","rcs_meters":null,"size_class":null,"mass_kg":null,"dimensions":null,"purposes":["comms"],"wikipedia_slug":null,"has_3d_model":false,"image_url":null,"decayed_at":null,"tle_current":{"epoch":"2026-09-20T08:46:49.369152Z","epoch_age_seconds":132549,"freshness":"FRESH","line1":"1 57102U 23090B   26263.36584918 -.00000037  00000+0  81675-5 0  9994","line2":"2 57102  43.0019 262.3006 0000832 269.4924  90.5832 15.27574024180106","mean_motion":15.27574024,"eccentricity":8.32e-5,"inclination_deg":43.0019,"raan_deg":262.3006,"arg_perigee_deg":269.4924,"mean_anomaly_deg":90.5832,"bstar":8.1675e-6,"rev_number":18010,"period_min":94.267117493221,"perigee_km":482.49613821984,"apogee_km":483.63784256384,"semimajor_km":6861.2039903918,"source":"CELESTRAK","updated_at":"2026-09-21T09:00:33.558203Z"}}}